{"data":{"norad_id":59100,"intl_designator":"2024-043C","name":"ICEYE-X38","alt_names":[],"object_type":"PAYLOAD","status":"ACTIVE","operator":null,"country":"FIN","launch_date":"2024-03-04","launch_site_code":"AFWTR","launch_vehicle":null,"mission":null,"orbit_class":"UNKNOWN","rcs_meters":null,"size_class":null,"mass_kg":null,"dimensions":null,"purposes":[],"wikipedia_slug":null,"has_3d_model":false,"image_url":null,"decayed_at":null,"tle_current":{"epoch":"2026-05-25T03:57:00.597600Z","epoch_age_seconds":60940,"freshness":"FRESH","line1":"1 59100U 24043C   26145.16459025  .00004171  00000+0  24282-3 0  9991","line2":"2 59100  97.8371 288.2867 0003521 141.5841 218.5640 15.12606581108198","mean_motion":15.12606581,"eccentricity":0.0003521,"inclination_deg":97.8371,"raan_deg":288.2867,"arg_perigee_deg":141.5841,"mean_anomaly_deg":218.564,"bstar":0.00024282,"rev_number":10819,"period_min":95.199903139916,"perigee_km":525.82261445183,"apogee_km":530.68609524391,"semimajor_km":6906.3913548479,"source":"CELESTRAK","updated_at":"2026-05-25T13:38:01.189515Z"}}}